Flag for U.S.A. Weather past 2 weeks in Monticello, Kentucky, U.S.A.

Now
57 °F

Clear.


Feels Like: 57 °F
Forecast: 54 / 81 °F
Wind: No wind

Location: London-Corbin Airport-Magee Field

Current Time: Jul 30, 2014 at 1:18:37 AM

Latest Report: Jul 30, 2014 at 12:53 AM


Visibility: 9 mi

Pressure: 30.09 "Hg

Humidity: 90%

Dew point: 54 °F

Location of MonticelloLocation

Historic Weather in Monticello — Graph

°F

Monticello temperature yesterday

Maximum temperature yesterday: 73 °F (at 3:53 PM)
Minimum temperature yesterday: 58 °F (at 11:53 PM)
Average temperature yesterday: 65 °F

Past Weeks' High & Low Weather Summary

 TemperatureHumidityPressure
High89 °F (Jul 23, 2:00 PM)96% (Jul 25, 3:53 AM)30.17 "Hg (Jul 25, 3:53 AM)
Low55 °F (Jul 17, 4:53 AM)37% (Jul 16, 5:53 PM)29.79 "Hg (Jul 27, 8:53 PM)
Average71 °F75%30.01 "Hg
* Reported Jul 14 11:02 PM — Jul 29 11:53 PM, Monticello, Weather by CustomWeather, © 2014

Note: Actual official high and low records may vary slightly from our data, if they occured in-between our weather recording intervals... More about our weather records

Advertising

Monticello weather history for previous 24 hours

 ConditionsComfort  
Time TempWeatherWind HumidityBarometerVisibility
11:53 PM
Jul 29
58 °FClear.No wind87%30.09 "Hg10 mi
10:53 PM60 °FClear.No wind80%30.09 "Hg10 mi
9:53 PM62 °FClear.No wind75%30.08 "Hg10 mi
8:53 PM67 °FSunny.3 mph59%30.07 "Hg10 mi
7:53 PM69 °FSunny.5 mph55%30.06 "Hg10 mi
6:53 PM71 °FSunny.7 mph51%30.06 "Hg10 mi
5:53 PM72 °FPartly sunny.10 mph49%30.05 "Hg10 mi
4:53 PM72 °FBroken clouds.9 mph48%30.05 "Hg10 mi
3:53 PM73 °FPassing clouds.9 mph46%30.05 "Hg10 mi
2:53 PM70 °FBroken clouds.8 mph51%30.05 "Hg10 mi
1:53 PM70 °FScattered clouds.7 mph47%30.06 "Hg10 mi
12:53 PM70 °FScattered clouds.8 mph47%30.07 "Hg10 mi
11:53 AM67 °FScattered clouds.8 mph53%30.07 "Hg10 mi
10:53 AM65 °FPassing clouds.8 mph59%30.06 "Hg10 mi
9:53 AM63 °FSunny.6 mph70%30.04 "Hg10 mi
8:53 AM61 °FSunny.7 mph72%30.03 "Hg10 mi
7:53 AM59 °FPassing clouds.7 mph78%30.02 "Hg10 mi
6:53 AM59 °FPassing clouds.5 mph84%30.01 "Hg10 mi
5:53 AM61 °FMostly cloudy.No wind75%29.99 "Hg10 mi
4:53 AM61 °FMostly cloudy.5 mph78%29.98 "Hg10 mi
3:53 AM61 °FPassing clouds.No wind81%29.98 "Hg10 mi
2:53 AM62 °FPassing clouds.5 mph80%29.99 "Hg10 mi
1:53 AM63 °FPassing clouds.No wind81%30.00 "Hg10 mi
Weather by CustomWeather, © 2014

See weather overviewHow to use our weather pages